KE7YUP Weather Reports


time (UTC)temp
F
wind
direction
speed
knots
gust
knots
rain 1hr
in
rain 24hr
in
rain mn
in
humidity
%
barometer
mb
20260901164216 67 144 3.5 4.3 0.00 0.01 0.00 62 1022.1
20260901163216 65 131 6.1 9.6 0.00 0.01 0.00 65 1021.7
20260901162216 65 90 6.1 7.0 0.00 0.01 0.00 65 1021.6
20260901161216 66 106 5.2 7.8 0.00 0.01 0.00 65 1021.7
20260901160216 67 156 2.6 6.1 0.00 0.01 0.00 64 1021.6
20260901155216 66 152 3.5 4.3 0.00 0.01 0.00 63 1021.6
20260901154216 66 149 0.0 0.9 0.00 0.01 0.00 63 1021.6
20260901153216 65 177 0.0 1.7 0.00 0.01 0.00 66 1021.7
20260901152216 64 177 0.9 2.6 0.00 0.01 0.00 68 1021.3
20260901151216 63 188 1.7 2.6 0.00 0.01 0.00 68 1021.3
20260901150236 62 220 2.6 4.3 0.00 0.01 0.00 71 1021.4
20260901145215 61 242 4.3 7.0 0.00 0.01 0.00 71 1021.0
20260901144216 61 229 1.7 2.6 0.00 0.01 0.00 72 1020.9
20260901143216 61 218 1.7 4.3 0.00 0.01 0.00 72 1021.1
20260901142236 61 248 1.7 3.5 0.00 0.01 0.00 72 1021.1
20260901141216 61 226 3.5 4.3 0.00 0.01 0.00 72 1021.2
20260901140236 60 329 0.9 1.7 0.00 0.01 0.00 72 1020.6
20260901135216 59 329 0.0 1.7 0.00 0.01 0.00 74 1020.4
20260901134215 58 329 2.6 3.5 0.00 0.01 0.00 76 1020.0
20260901133256 58 329 0.9 1.7 0.00 0.01 0.00 76 1019.9
20260901132215 58 293 1.7 3.5 0.00 0.01 0.00 76 1019.9
20260901131216 57 293 0.9 1.7 0.00 0.01 0.00 78 1019.8
20260901130216 57 139 0.0 0.9 0.00 0.01 0.00 79 1019.4
20260901125216 56 86 1.7 6.1 0.00 0.01 0.00 79 1019.3
20260901124215 57 287 0.9 1.7 0.00 0.01 0.00 79 1019.6
20260901123236 56 281 2.6 3.5 0.00 0.01 0.00 80 1019.5
20260901122215 56 0.0 0.0 0.00 0.01 0.00 80 1019.6
20260901121216 56 324 2.6 3.5 0.00 0.01 0.00 82 1019.6
20260901120216 56 324 1.7 2.6 0.00 0.01 0.00 81 1020.1
20260901115217 56 299 1.7 2.6 0.00 0.01 0.00 81 1020.3
20260901114215 56 299 2.6 3.5 0.00 0.01 0.00 80 1020.2
20260901113236 57 299 0.9 1.7 0.00 0.01 0.00 80 1020.1
20260901112215 57 0.0 0.9 0.00 0.01 0.00 80 1020.0
20260901111255 57 299 1.7 2.6 0.00 0.01 0.00 80 1020.0
20260901110215 57 299 0.0 0.9 0.00 0.01 0.00 80 1021.4
20260901105215 57 0.0 0.0 0.00 0.01 0.00 81 1021.5
20260901104215 56 299 1.7 2.6 0.00 0.01 0.00 80 1021.4
20260901103215 56 299 0.9 0.9 0.00 0.01 0.00 80 1021.6
20260901102218 57 302 0.0 1.7 0.00 0.01 0.00 79 1021.7
20260901101235 57 302 0.9 1.7 0.00 0.01 0.00 80 1021.6
20260901100215 57 302 1.7 2.6 0.00 0.01 0.00 80 1022.2
20260901095215 57 302 1.7 2.6 0.00 0.01 0.00 79 1022.4
20260901094215 57 302 2.6 3.5 0.00 0.01 0.00 78 1022.4
20260901093215 58 259 0.9 1.7 0.00 0.01 0.00 78 1023.1
20260901092215 57 22 0.9 1.7 0.00 0.01 0.00 79 1022.6
20260901091215 58 0.0 0.9 0.00 0.01 0.00 79 1022.9
20260901090235 58 252 0.9 2.6 0.00 0.01 0.00 79 1022.6
20260901085215 58 265 3.5 6.1 0.00 0.01 0.00 79 1022.4
20260901084235 58 246 4.3 6.1 0.00 0.01 0.00 79 1022.6
20260901083215 58 255 5.2 7.8 0.00 0.01 0.00 79 1022.7
20260901082217 58 256 3.5 6.1 0.00 0.01 0.00 79 1022.8
20260901081215 58 254 5.2 7.0 0.00 0.01 0.00 79 1022.7
20260901080215 58 255 3.5 6.1 0.00 0.01 0.00 78 1022.7
20260901075235 58 257 3.5 7.8 0.00 0.01 0.00 79 1022.7
20260901074217 59 248 3.5 4.3 0.00 0.01 0.00 78 1022.6
20260901073217 59 240 1.7 3.5 0.00 0.01 0.00 77 1022.5
20260901072217 59 250 4.3 6.1 0.00 0.01 0.00 78 1022.6
20260901071217 59 252 6.1 7.0 0.00 0.01 0.00 78 1022.4
20260901070217 59 253 6.1 8.7 0.00 0.01 0.00 78 1022.3
20260901065217 59 260 5.2 7.8 0.00 0.01 0.00 78 1022.4
20260901064216 59 267 3.5 5.2 0.00 0.01 0.00 79 1022.4
20260901063217 59 264 5.2 6.1 0.00 0.01 0.00 79 1021.7
20260901062217 59 259 4.3 6.1 0.00 0.01 0.00 79 1021.7
20260901061217 59 266 8.7 9.6 0.00 0.01 0.00 78 1021.9
20260901060216 59 258 5.2 8.7 0.00 0.01 0.00 78 1021.8
20260901055216 59 258 6.1 8.7 0.00 0.01 0.01 78 1021.8
20260901054216 60 261 4.3 7.0 0.00 0.01 0.01 78 1022.0
20260901053216 60 261 2.6 3.5 0.00 0.01 0.01 78 1021.9
20260901052216 60 272 4.3 7.0 0.00 0.01 0.01 78 1022.1
20260901051216 60 0 0.9 1.7 0.00 0.01 0.01 80 1022.2
20260901050216 59 0 0.9 2.6 0.00 0.01 0.01 80 1021.9
20260901045216 60 0 3.5 4.3 0.00 0.01 0.01 79 1022.0
20260901044235 60 91 0.0 0.9 0.00 0.01 0.01 78 1022.4
20260901043216 60 101 1.7 2.6 0.00 0.01 0.01 79 1022.2
20260901042236 59 127 0.9 2.6 0.00 0.01 0.01 80 1022.2
20260901041215 59 255 0.0 0.9 0.00 0.01 0.01 81 1022.4
20260901040236 59 255 2.6 4.3 0.00 0.01 0.01 81 1022.2
20260901035216 59 273 3.5 5.2 0.00 0.01 0.01 80 1022.3
20260901033216 59 265 5.2 7.8 0.00 0.01 0.01 80 1022.0
20260901032235 59 262 5.2 7.8 0.00 0.01 0.01 80 1022.0
20260901031215 59 240 4.3 6.1 0.00 0.01 0.01 80 1022.0
20260901030215 59 249 4.3 7.0 0.00 0.01 0.01 81 1021.5
20260901025215 60 246 6.1 8.7 0.00 0.01 0.01 84 1021.5
20260901024215 60 153 0.9 1.7 0.00 0.01 0.01 83 1021.1
20260901023236 60 152 0.9 2.6 0.00 0.01 0.01 83 1020.4
20260901022215 60 152 2.6 4.3 0.00 0.01 0.01 82 1020.4
20260901021215 61 101 4.3 7.8 0.00 0.01 0.01 80 1020.7
20260901020215 61 124 5.2 9.6 0.00 0.01 0.01 75 1020.2
20260901015215 62 93 3.5 7.8 0.00 0.01 0.01 74 1020.6
20260901014215 61 105 5.2 8.7 0.01 0.01 0.01 74 1020.5
20260901013215 61 242 1.7 2.6 0.01 0.01 0.01 74 1021.0
20260901012215 61 224 0.9 1.7 0.01 0.01 0.01 75 1021.2
20260901011215 61 223 1.7 2.6 0.01 0.01 0.01 74 1021.3
20260901010215 61 198 0.0 0.9 0.01 0.01 0.01 74 1021.9
20260901005215 61 175 1.7 3.5 0.01 0.01 0.01 75 1022.0
20260901004215 61 173 1.7 7.0 0.00 0.00 0.00 75 1022.2
20260901003215 61 202 3.5 5.2 0.00 0.00 0.00 74 1022.0
20260901002215 62 224 5.2 9.6 0.00 0.00 0.00 71 1021.9
20260901001215 63 193 6.1 9.6 0.00 0.00 0.00 70 1022.5
20260901000235 64 155 7.0 11.3 0.00 0.00 0.00 66 1022.7
20260831235255 65 209 6.1 13.0 0.00 0.00 0.00 61 1022.3
20260831234215 66 242 12.2 17.4 0.00 0.00 0.00 58 1021.7
20260831233215 66 254 10.4 13.0 0.00 0.00 0.00 60 1020.7
20260831232215 66 248 9.6 18.2 0.00 0.00 0.00 59 1020.5
20260831231215 65 208 7.8 13.9 0.00 0.00 0.00 63 1020.1
20260831230215 67 197 10.4 15.6 0.00 0.00 0.00 59 1020.1
20260831225215 68 225 6.1 13.9 0.00 0.00 0.00 61 1020.0
20260831224255 73 184 14.8 22.6 0.00 0.00 0.00 44 1019.7
20260831223215 74 159 8.7 19.1 0.00 0.00 0.00 44 1019.3
20260831222237 73 159 7.8 13.0 0.00 0.00 0.00 48 1018.4
20260831221217 73 144 13.0 24.3 0.00 0.00 0.00 51 1018.4
20260831220215 74 150 9.6 16.5 0.00 0.00 0.00 48 1018.4
20260831215217 75 157 13.0 22.6 0.00 0.00 0.00 47 1018.8
20260831214217 76 143 15.6 23.5 0.00 0.00 0.00 47 1018.7
20260831213217 78 149 16.5 26.1 0.00 0.00 0.00 47 1019.3
20260831212217 78 157 9.6 20.0 0.00 0.00 0.00 45 1019.2
20260831211217 80 128 6.1 17.4 0.00 0.00 0.00 41 1019.4
20260831210217 80 108 5.2 7.8 0.00 0.00 0.00 42 1019.7
20260831205216 80 100 6.1 9.6 0.00 0.00 0.00 42 1019.8
20260831204217 79 121 7.0 12.2 0.00 0.00 0.00 39 1019.9
20260831203217 79 108 7.0 10.4 0.00 0.00 0.00 40 1020.3
20260831202216 79 102 5.2 13.0 0.00 0.00 0.00 41 1020.5
20260831201217 78 99 2.6 11.3 0.00 0.00 0.00 44 1020.6
20260831200216 79 112 4.3 10.4 0.00 0.00 0.00 44 1020.8
20260831195216 78 117 7.0 13.0 0.00 0.00 0.00 44 1021.0
20260831194216 78 111 7.0 10.4 0.00 0.00 0.00 43 1021.1
20260831193216 78 128 7.8 11.3 0.00 0.00 0.00 45 1021.1
20260831192217 78 106 6.1 12.2 0.00 0.00 0.00 45 1020.9
20260831191216 77 85 5.2 10.4 0.00 0.00 0.00 48 1021.3
20260831190216 77 109 6.1 8.7 0.00 0.00 0.00 48 1021.7
20260831185236 76 111 4.3 7.0 0.00 0.00 0.00 49 1021.6
20260831184237 77 124 5.2 8.7 0.00 0.00 0.00 47 1022.0
20260831183256 77 114 5.2 9.6 0.00 0.00 0.00 48 1022.2
20260831182216 76 111 4.3 7.0 0.00 0.00 0.00 50 1022.4
20260831181216 75 134 4.3 7.8 0.00 0.00 0.00 51 1022.2
20260831180216 74 93 4.3 6.1 0.00 0.00 0.00 51 1022.3
20260831175216 74 153 6.1 9.6 0.00 0.00 0.00 49 1022.4
20260831174216 75 143 7.0 9.6 0.00 0.00 0.00 50 1022.4
20260831173216 74 100 8.7 11.3 0.00 0.00 0.00 51 1022.4
20260831172216 73 100 7.8 11.3 0.00 0.00 0.00 51 1022.5
20260831171216 73 139 6.1 10.4 0.00 0.00 0.00 51 1022.5
20260831170216 72 113 6.1 9.6 0.00 0.00 0.00 53 1022.2
20260831165216 72 128 2.6 5.2 0.00 0.00 0.00 54 1022.3